Regional Weather Roundup
Issued by NWS Charleston, SC

Current Version | Previous Version | Graphics & Text | Print | Product List | Glossary Off
Versions: 1 2 3 4 5 6 7 8 9 10 11 12 13 14 15 16 17 18 19 20 21 22 23 24 25 26 27 28 29 30 31 32 33 34 35 36 37 38 39 40 41 42 43 44 45 46 47 48 49 50

940
ASUS42 KCHS 211741
RWRCHS

REGIONAL WEATHER ROUNDUP
NATIONAL WEATHER SERVICE CHARLESTON SC
100 PM EDT THU SEP 21 2017

NOTE: "FAIR" INDICATES FEW OR NO CLOUDS BELOW 12,000 FEET WITH NO
SIGNIFICANT WEATHER AND/OR OBSTRUCTIONS TO VISIBILITY.

NOT ALL STATIONS ARE QUALITY CONTROLLED. USE DATA WITH CAUTION...
ESPECIALLY DEWPOINT OBSERVATIONS.

SCZ027-030-031-034>040-042>050-211800-
...SOUTHEAST SOUTH CAROLINA...

CITY           SKY/WX    TMP DP  RH WIND       PRES   REMARKS
N CHARLESTON   PTSUNNY   87  71  58 N3        30.03F HX  93
WATERFRONT PRK   N/A     87  73  62 VRB3      29.89S HX  94
JOHNS ISLAND   FAIR      88  77  70 SE8       30.03F HX 100
PINOPOLIS        N/A     86  73  66 CALM      29.96F HX  93
MONCKS CORNER  FAIR      88  66  48 CALM      30.02F HX  90
SUMMERVILLE    FAIR      88  70  55 SE3       30.03F HX  92
BEAUFORT MCAS  MOSUNNY   87  72  60 CALM      30.04F HX  93
BEAUFORT ARPT  FAIR      86  70  58 NE5       30.03F HX  90
HILTON HEAD IS SUNNY     86  73  66 SE5       30.05F HX  93
WALTERBORO     SUNNY     86  70  58 CALM      30.03F HX  90
ALLENDALE      NOT AVBL

...SOUTHERN MIDLANDS AND PEE DEE...

CITY           SKY/WX    TMP DP  RH WIND       PRES   REMARKS
GEORGETOWN     CLOUDY    86  72  62 CALM      30.03F HX  92
KINGSTREE      FAIR      88  68  51 CALM      30.01F HX  91
ORANGEBURG     SUNNY     88  66  48 NE5       30.03F HX  90
BARNWELL       FAIR      91  70  49 NE3       30.02F HX  97
AIKEN          FAIR      88  64  45 CALM      30.07F
MANNING        FAIR      86  68  54 E22G92    30.02F
COLUMBIA       NOT AVBL
SUMTER         MOSUNNY   90  65  42 NW5       30.00F HX  92
FLORENCE       SUNNY     89  71  55 CALM      30.02F HX  95
MYRTLE BEACH   MOSUNNY   85  74  69 S7        30.03F HX  92
N MYRTLE BEACH PTSUNNY   84  75  74 S8        30.02F HX  92

$$

GAZ063-065-086>088-099>101-113>116-118-119-134>141-150-211800-
...SOUTHEAST GEORGIA...

CITY           SKY/WX    TMP DP  RH WIND       PRES   REMARKS
SAVANNAH ARPT  PTSUNNY   89  68  49 SW7       30.04F HX  93
HUNTER AAF     MOSUNNY   87  70  57 CALM      30.01F HX  91
FORT STEWART   MOSUNNY   87  68  52 CALM      30.02F HX  91
STATESBORO     MOSUNNY   89  67  47 SE5       30.03F HX  91
SYLVANIA       MOSUNNY   87  74  66 CALM      30.04F HX  95
CLAXTON        FAIR      90  73  55 SE6       30.02F HX  98

...CSRA...CENTRAL AND FAR SOUTHEAST GEORGIA...

CITY           SKY/WX    TMP DP  RH WIND       PRES   REMARKS
THOMSON        MOSUNNY   90  66  44 NE6       30.09F HX  92
AUGUSTA-BUSH   SUNNY     92  67  43 VRB5      30.02F HX  95
AUGUSTA-DANIEL MOSUNNY   91  65  41 N6        30.04F HX  93
SWAINSBORO     PTSUNNY   90  70  51 E7        30.04F HX  95
VIDALIA        MOSUNNY   90  72  55 SE3       30.04F HX  96
EASTMAN        FAIR      91  55  29 E5        30.06F
HAZLEHURST     FAIR      88  61  39 CALM      30.03F
ALMA           SUNNY     88  72  58 VRB3      30.03F HX  94
WAYCROSS       MOSUNNY   87  70  56 CALM      30.03F HX  91
JESUP          NOT AVBL
BAXLEY         FAIR      86  70  58 E3        30.03F HX  90
BRUNSWICK      PTSUNNY   88  68  51 E6        30.03F HX  91
SAINT SIMONS   MOSUNNY   86  75  69 SE8       30.03F HX  95

$$

SCZ027-028-034-036>038-045-046-048>050-GAZ119-141-211800-
...LAKE AND SUPPLEMENTAL COASTAL OBSERVATIONS...

STATION/POSITION TIME  TEMP    WIND        PRES    WAVE   SWELL
                       AIR SEA DIR/SP/G            HT/PER HT/PER/DIR
                 (UTC) (F)     (DEG/KT/KT) (MB)    (FT/S) (FT/S/D)
WINYAH BAY       1630   85     150/  4     1017.0S
LAKE MURRAY      1720   86     200/  4/  4 1015.9
ACE BASIN NERRS  1645   87     150/  1     1017.0F
FORT PULASKI     1700   84 80   CALM  /  1 1017.5
SAPELO ISLAND    1700   85        CALM     1017.0

$$

ANZ835-935-AMZ111-154-330-350-352-354-370-450-454-472-211800-
...C-MAN AND BUOY OBSERVATIONS...

STATION/POSITION TIME  TEMP    WIND        PRES    WAVE   SWELL
                       AIR SEA DIR/SP/G            HT/PER HT/PER/DIR
                 (UTC) (F)     (DEG/KT/KT) (MB)    (FT/S) (FT/S/D)
BUOY 41004       1710   80 81   CALM  /  2 1016.8
BUOY 41008       1650   80 81  350/  4/  4 1017.3F   2/11   2/120/11
FOLLY BEACH CMAN 1700   81     170/  7/  8 1017.8F
CAPERS NEARSHORE 1708   80 81  190/  8/ 12 1016.8F
FRIPP NEARSHORE  1708   81     200/  4/  6 1024.1F


STATION/POSITION TIME  TEMP    WIND        PRES    WAVE   SWELL
                       AIR SEA DIR/SP/G            HT/PER HT/PER/DIR
                 (UTC) (F)     (DEG/KT/KT) (MB)    (FT/S) (FT/S/D)
5E ST. MARYS GA  1700      85                N/A     2/13   2/110/13
FRYING PAN BUOY  1710   80 82  270/  2/  4 1016.7
BUOY 41025       1650   77 77  360/  4/  6 1016.4F   4/11   5/ 70/11
CAPE LOOKOUT NC  1700   81     120/  3/  4 1016.3F
BUOY 41002       1650   79 81   50/  2/  4 1017.5F   5/11   5/ 40/11
BUOY 41010       1710      85   60/ 10/ 14 1016.5
ST AUGUSTINE FL  1700   80 83   20/ 10/ 11 1017.5F


$$




USA.gov is the U.S. government's official web portal to all federal, state and local government web resources and services.